Regional Weather Roundup
Issued by NWS

Home | Current Version | Previous Version | Graphics & Text | Print | Product List | Glossary On
Versions: 1 2 3 4 5 6 7 8 9 10 11 12 13 14 15 16 17 18 19 20 21 22 23 24 25 26 27 28 29 30 31 32 33 34 35 36 37 38 39 40 41 42 43 44 45 46 47 48 49 50
000
ASUS43 KIND 230959
RWRIN

WEATHER ROUNDUP FOR INDIANA
NATIONAL WEATHER SERVICE INDIANAPOLIS IN
600 AM EDT MON APR 23 2018

NOTE: "FAIR" INDICATES FEW OR NO CLOUDS BELOW 12,000 FEET WITH NO
SIGNIFICANT WEATHER AND/OR OBSTRUCTIONS TO VISIBILITY.

* - STATION DOES NOT REPORT WEATHER SUCH AS PRECIPITATION OR FOG.

+ - STATION NOT QUALITY CONTROLLED BY THE NATIONAL WEATHER SERVICE.
    USE DATA WITH CAUTION...ESPECIALLY DEWPOINT AND RELATIVE
    HUMIDITY OBSERVATIONS.

INZ001>003-010>013-019-020-231100-
NORTHWEST INDIANA

CITY           SKY/WX    TMP DP  RH WIND       PRES   REMARKS
GARY /AIRPORT/ MOCLDY    41  32  70 NE8       30.20S
KNOX *+        FAIR      37  27  65 NE5       30.17F WCI  34
MONTICELLO +   FAIR      45  25  45 NE8       30.13F

$$

LMZ046-743>745-231100-
SOUTHERN LAKE MICHIGAN

STATION/POSITION TIME  TEMP    WIND        PRES    WAVE
                       AIR SEA DIR/SP/G            HT
                 (UTC) (F)     (DEG/KT/KT) (MB)    (FT)
BURNS HARBOR     0940   43      70/  6/  8 1023.0S
MICHIGAN CITY    0930   44      50/  7/  8   N/A

$$

INZ004-005-014>016-021>024-231100-
NORTH CENTRAL INDIANA

CITY           SKY/WX    TMP DP  RH WIND       PRES   REMARKS
GOSHEN         FAIR      40  25  55 NE6       30.19S WCI  36
PERU/GRISSOM   FAIR     N/A N/A N/A NE10        N/A
ROCHESTER +    FAIR      45  28  53 NE6       30.16F
SOUTH BEND     FAIR      43  22  43 E3        30.21S
WARSAW +       FAIR      41  28  60 E8        30.17F

$$

INZ006>009-017-018-025>027-231100-
NORTHEAST INDIANA

CITY           SKY/WX    TMP DP  RH WIND       PRES   REMARKS
FORT WAYNE     MOCLDY    41  29  62 NE9       30.18S

$$

INZ028-029-035-036-043>045-051>053-231100-
WEST CENTRAL INDIANA

CITY           SKY/WX    TMP DP  RH WIND       PRES   REMARKS
LAFAYETTE      FAIR      45  27  49 NE14      30.11F
TERRE HAUTE    CLOUDY    53  34  48 E12       30.05F

$$

INZ030>032-037>040-046>048-054>057-064-065-231100-
CENTRAL INDIANA

CITY           SKY/WX    TMP DP  RH WIND       PRES   REMARKS
GREENWOOD *+   FAIR      50  32  50 E8        30.08S
INDIANAPOLIS   CLOUDY    51  30  44 NE13      30.08S
-EAGLE CREEK   FAIR      49  29  46 NE6       30.08F
KOKOMO +       FAIR      42  30  62 NE10      30.13F
MT COMFORT *+  FAIR      45  37  76 NE7       30.09S
SHELBYVILLE    FAIR      52  32  46 E13       30.07S
ZIONSVILLE +   FAIR      44  29  56 NE8       30.11S

$$

INZ033-034-041-042-049-050-058-059-231100-
EAST CENTRAL INDIANA

CITY           SKY/WX    TMP DP  RH WIND       PRES   REMARKS
MUNCIE         FAIR      44  30  57 NE8       30.12F
RICHMOND +     FAIR      45  34  65 E10       30.11S

$$

INZ060-061-067>069-081>083-085>088-231100-
SOUTHWEST INDIANA

CITY           SKY/WX    TMP DP  RH WIND       PRES   REMARKS
EVANSVILLE     LGT RAIN  50  49  96 NE16G29   29.92F FOG
HUNTINGBURG +  LGT RAIN  51  47  86 E16       29.97F

$$

INZ062-063-066-070>080-084-089>092-231100-
SOUTH CENTRAL AND SOUTHEAST INDIANA

CITY           SKY/WX    TMP DP  RH WIND       PRES   REMARKS
BLOOMINGTON    LGT RAIN  56  34  43 E9        30.04S
MADISON *+     CLOUDY    54  32  43 E7        30.08R
SEYMOUR +      DRIZZLE   57  34  41 E6        30.06R

$$





USA.gov is the U.S. government's official web portal to all federal, state and local government web resources and services.